カタログに戻る

BPA-2/SL-24 R/B

運用中PO
NORAD 37795·ROCKET BODY·🇺🇦 Ukraine

打ち上げ Aug 17, 2011 から Dombarovsky

Loading…

次のパス (今後24時間)

TLE

最新Source: Space-Track

元期: Sep 14, 2026, 05:25 UTC

1 37795U 11044H   26257.22628043 -.00000003  00000-0  18232-4 0  9994
2 37795  98.2269 345.2242 0408953  47.3212 341.3779 13.72185511755048

AllMySatでBPA-2/SL-24 R/Bをリアルタイム追跡

Download on the App Store